OpenBCM V2.0.2 (Linux)

Packet Radio Mailbox

IZ3LSV

[San Dona' di P. JN]

 Login: GUEST





  
TA2BBS > KEP      21.05.08 01:07l 77 Lines 3126 Bytes #999 (0) @ WW
BID : ARLK038
Read: GUEST
Subj: ARLK038 Keplerian data
Path: IZ3LSV<IK2XDE<I0TVL<IK1ZNW<IR1UAW<IK2QCA<I4UKI<IK6ZDE<VE2PKT<VE3KPG<
      GB7CIP<TA2BBS
Sent: 080520/2128Z @:TA2BBS.#ANK.TUR.EU [Ankara] HF/PR/PTOR XFBB7.04j $:ARLK038
From: TA2BBS@TA2BBS.#ANK.TUR.EU
To  : KEP@ARL


ZCZC SK38
QST de W1AW
Keplerian Bulletin 38  ARLK038
From ARRL Headquarters
Newington, CT  May 20, 2008
To all radio amateurs

SB KEP ARL ARLK038
ARLK038 Keplerian data

Special thanks to AMSAT-NA (AMSAT.ORG) for the following Keplerian
data.

Decode 2-line elsets with the following key:
1 AAAAAU 00  0  0 BBBBB.BBBBBBBB  .CCCCCCCC  00000-0  00000-0 0  DDDZ
2 AAAAA EEE.EEEE FFF.FFFF GGGGGGG HHH.HHHH III.IIII JJ.JJJJJJJJKKKKKZ
KEY: A-CATALOGNUM B-EPOCHTIME C-DECAY D-ELSETNUM E-INCLINATION F-RAAN
G-ECCENTRICITY H-ARGPERIGEE I-MNANOM J-MNMOTION K-ORBITNUM Z-CHECKSUM

AO-07
1 07530U 74089B   08140.64305803 -.00000027 +00000-0 +10000-3 0 01812
2 07530 101.4668 173.0927 0011802 318.7701 041.2476 12.53573798533400
UO-11
1 14781U 84021B   08141.25665821  .00000080  00000-0  17907-4 0  6730
2 14781 098.1556 174.8708 0009497 157.5520 202.6171 14.79641992299726
AO-16
1 20439U 90005D   08141.39723065  .00000010  00000-0  19046-4 0  3248
2 20439 098.2274 122.8825 0009934 260.9283 099.0788 14.31793799956942
AO-27
1 22825U 93061C   08140.91771561 +.00000046 +00000-0 +34551-4 0 09743
2 22825 098.3821 102.0028 0008346 351.1319 008.9738 14.29239156763732
IO-26
1 22826U 93061D   08140.62669581  .00000002  00000-0  17004-4 0  6776
2 22826 098.3744 102.6452 0009112 348.2566 011.8402 14.29487637763782
PO-28
1 22829U 93061G   08140.90703250 -.00000043 +00000-0 -53171-6 0 09500
2 22829 098.3620 104.0242 0009289 318.6649 041.3828 14.30188921764089
FO-29
1 24278U 96046B   08140.87124507  .00000024  00000-0  64150-4 0  7731
2 24278 098.5889 060.8616 0349898 288.9507 067.4018 13.52937607580562
GO-32
1 25397U 98043D   08140.56587580  .00000093  00000-0  59175-4 0  6021
2 25397 098.3655 177.1387 0001000 013.5066 346.6163 14.23143682512146
ISS
1 25544U 98067A   08140.82269676 +.00006238 +00000-0 +42714-4 0 05109
2 25544 051.6393 162.6058 0005626 227.3060 137.5338 15.76350810544050
MO-46
1 26548U 00057D   08140.78231939 -.00000011 +00000-0 +16776-4 0 01044
2 26548 064.5574 218.1667 0026806 328.0369 031.9141 14.83260342413608
AO-40
1 26609U 00072B   08140.94413928 -.00000075  00000-0  10000-3 0   588
2 26609 007.5548 082.0495 7911716 082.9018 351.4269 01.25584230 34683
NO-44
1 26931U 01043C   08140.88022862 +.00000155 +00000-0 +92994-4 0 08849
2 26931 067.0551 357.5809 0006338 277.4115 082.6251 14.29524018346363
SO-50
1 27607U 02058C   08140.45988898 +.00000119 +00000-0 +40347-4 0 06078
2 27607 064.5567 140.8830 0085042 285.1059 074.0643 14.71355940290745
CO-55
1 27844U 03031E   08140.55904833  .00000042  00000-0  40042-4 0  3086
2 27844 098.7148 149.2237 0009444 194.1941 165.8986 14.20579425253374
AO-51
1 28375U 04025K   08141.40521748  .00000015  00000-0  17428-4 0  1030
2 28375 098.0731 167.5365 0082921 237.3333 121.9835 14.40607679204407
VO-52
1 28650U 05017B   08141.37635717  .00000360  00000-0  52404-4 0  9344
2 28650 097.7910 208.7479 0026375 229.4390 130.4496 14.81464600164489

Keplerian bulletins are transmitted twice weekly from W1AW.  The
next scheduled transmission of these data will be Friday, May 23,
2008, at 2230z on Baudot and AMTOR.
NNNN


Read previous mail | Read next mail


 05.05.2026 08:04:26lGo back Go up